Showing default

EOSSAT-1, 55053

Orbit data source: Space-Track

EOSSAT-1, 55053 is a payload satellite owned by EOS DA (ZA) in SSO that was launched on Tue, 03 Jan 2023 UTC via an FALCON 9 launch vehicle from the Air Force Eastern Test Range (AFETR). Payload-class satellites include a variety of spacecraft equipped with specific instruments for various scientific and technological missions. These include communications satellites like Starlink; space stations such as the ISS; scientific satellites like the Hubble; Earth observation satellites from companies like Planet Labs, Umbra, and HawkEye 360; GPS; miniature CubeSats for education and research; and military/defense satellites.

Loading next visibility...
Identifier
55053, 2023-001AW
Orbit
SSO
Country
Flag of ZAZA / SAFR
Related business
Manufacturer
Dragonfly
Mission
Operational Commercial Imaging
Bus & Motor
EOS-SAT, AOCS
Mass
178 kg wet, 178 kg dry
Launch date (UTC)
2023-01-03 (3 years ago)
Launch vehicle
FALCON 9
Launch site
Air Force Eastern Test Range (AFETR)
Object type
Payload
Rocket body
Debris
Shape & HBR
Cyl + 2 Pan, 0.3 m
Radar Cross Section
0.295 m², Medium (>0.1 m² and < 1m²)

Expand to show TLE details & history
Last TLE update: 6 hours ago

TLE from 6 hours ago
0 EOSSAT-1
1 55053U 23001AW  26166.45097029  .00004492  00000-0  14065-3 0  9999
2 55053  97.3239 227.0703 0010948 118.9223 241.3119 15.33560115191655
Epoch: 2026-06-15T10:49Z
TLE epoch observation values (Epoch: 2026-06-15T10:49:23.833Z)
Latitude
-0.00001°
Longitude
160.98382°
Altitude
471.915 km
Speed
7.628 km/s
True Right ascension
15h 08m 16s
True Declination
0° 00' 00"
Sunlit
Object was in full shadow at epoch
Visualization orbit readout
Latitude
Unknown
Longitude
Unknown
Altitude
Unknown
Speed
Unknown
Apparent Right ascension
Unknown
Apparent Declination
Unknown
Sunlit
N/A
Visualization observer readout
Local Sidereal Time
03:54:14
Azimuth
Unknown
Elevation
Unknown
Doppler factor
Unknown
Orbital elements
Apogee altitude
469.634 km
Perigee altitude
454.656 km
Semi-major axis
6,840.282 km
Eccentricity
0.00109
Inclination
97.3239°
RAAN
227.0703°
Arg. of periapsis
118.9223°
True anomaly
241.20192°
Mean anomaly
241.3119°
Eccentric anomaly
241.2569°
Mean motion
3.83647 °/min
Orbital period
93.84 mins
BSTAR
0.00014065
Loading maneuver chart data...
Computing Atmospheric mass density...
Loading historical data...
Loading historical data...
Loading historical data...
Loading historical data...
Loading historical data...
Loading historical data...
Loading historical data...

Documentation

Showing up to 5 results
|